Location: *
(40.9167°N, 9.5000°E)
Time: 20:37:15
(UTC+00:00)

Cosmos 1812 Rocket - Pass Details

Date: 09 April 2020
Orbit: 607 x 631 km, 82.5° (Epoch: 31 May)

Event Time Altitude Azimuth Distance (km) Brightness Sun altitude
Exits shadow 19:25:18 28° 88° (E) 1,140 4.4 -16.8°
Drops below altitude 10° 19:28:58 10° 31° (NNE) 1,965 6.1 -17.4°
Sets 19:31:24 0° 20° (NNE) 2,873 7.1 -17.8°
